DW5298 Weather Reports


time (UTC)temp
C
wind
direction
speed
KPH
gust
KPH
rain 1hr
cm
rain 24hr
cm
rain mn
cm
humidity
%
barometer
mb
20260504081526 12 287 0.0 4.8 0.00 0.00 0.00 84 1006.6
20260504050106 14 287 1.6 3.2 0.00 0.00 0.00 78 1007.9
20260504044602 14 291 3.2 4.8 0.00 0.00 0.00 76 1008.3
20260504043059 15 294 3.2 6.4 0.00 0.00 0.00 75 1008.6
20260504041601 14 294 3.2 6.4 0.00 0.00 0.00 75 1008.8
20260504034558 15 289 1.6 3.2 0.00 0.00 0.00 73 1009.0
20260504033056 15 355 4.8 6.4 0.00 0.00 0.00 73 1008.9
20260504031556 15 270 3.2 4.8 0.00 0.00 0.00 72 1009.2
20260504030055 15 268 1.6 6.4 0.00 0.00 0.00 70 1009.1
20260504024609 16 283 1.6 6.4 0.00 0.00 0.00 69 1009.1
20260504023054 16 269 4.8 11.3 0.00 0.00 0.00 67 1009.1
20260504021554 16 319 3.2 6.4 0.00 0.00 0.00 69 1009.2
20260504020055 16 343 1.6 4.8 0.00 0.00 0.00 71 1009.1
20260504014558 16 345 0.0 0.0 0.00 0.00 0.00 70 1009.1
20260504013055 16 343 0.0 0.0 0.00 0.00 0.00 67 1008.9
20260504011552 17 343 0.0 3.2 0.00 0.00 0.00 64 1008.6
20260504010055 18 346 0.0 4.8 0.00 0.00 0.00 61 1008.5
20260504004550 18 355 0.0 3.2 0.00 0.00 0.00 59 1008.7
20260504003053 20 355 0.0 4.8 0.00 0.00 0.00 57 1008.4
20260504001649 20 355 0.0 4.8 0.00 0.00 0.00 56 1008.4
20260504000113 20 344 0.0 6.4 0.00 0.00 0.00 53 1008.2
20260503234553 20 300 3.2 9.7 0.00 0.00 0.00 53 1008.3
20260503233046 20 355 4.8 14.5 0.00 0.00 0.00 51 1008.6
20260503231547 20 264 4.8 17.7 0.00 0.00 0.00 51 1008.5
20260503230046 21 306 11.3 22.5 0.00 0.00 0.00 48 1008.1
20260503224544 20 291 12.9 19.3 0.00 0.00 0.00 48 1008.4
20260503223040 20 272 11.3 17.7 0.00 0.00 0.00 47 1009.1
20260503221548 20 288 9.7 22.5 0.00 0.00 0.00 47 1009.1
20260503220039 20 355 11.3 22.5 0.00 0.00 0.00 46 1009.1
20260503214541 20 287 14.5 25.7 0.00 0.00 0.00 46 1009.3
20260503213033 20 355 16.1 27.4 0.00 0.00 0.00 47 1009.2
20260503211533 20 355 14.5 27.4 0.00 0.00 0.00 47 1009.3
20260503210031 20 310 16.1 27.4 0.00 0.00 0.00 48 1009.8
20260503204527 20 314 16.1 25.7 0.00 0.00 0.00 48 1010.3
20260503203038 18 286 12.9 24.1 0.00 0.00 0.00 48 1010.7
20260503201532 18 350 19.3 32.2 0.00 0.00 0.00 47 1011.0
20260503200024 18 260 22.5 32.2 0.00 0.00 0.00 48 1010.8
20260503194523 18 278 19.3 35.4 0.00 0.00 0.00 49 1011.2
20260503193022 18 355 20.9 35.4 0.00 0.00 0.00 48 1010.6
20260503191518 18 355 19.3 40.2 0.00 0.00 0.00 50 1011.3
20260503190018 18 355 24.1 37.0 0.00 0.00 0.00 49 1011.5
20260503184514 19 282 27.4 38.6 0.00 0.00 0.00 48 1011.8
20260503183011 18 269 20.9 32.2 0.00 0.00 0.00 51 1012.4
20260503181506 16 278 16.1 35.4 0.00 0.00 0.00 53 1013.0
20260503180005 17 269 14.5 25.7 0.00 0.00 0.00 52 1013.9
20260503174508 17 355 20.9 33.8 0.00 0.00 0.00 52 1013.5
20260503173004 16 295 22.5 32.2 0.00 0.00 0.00 55 1013.7
20260503171603 16 312 20.9 29.0 0.00 0.00 0.00 54 1014.2